Location: Kings Park
(40.8862°N, 73.2573°W)
Time: 04:31:24
(UTC+00:00)

ATLAS 2AS CENTAUR R/B - Pass Details

Date: 29 October 2020
Orbit: 939 x 1273 km, 63.7° (Epoch: 23 November)

Event Time Altitude Azimuth Distance (km) Brightness Sun altitude
Rises 23:37:45 0° 328° (NNW) 4,149 6.2 -20.5°
Reaches altitude 10° 23:40:55 10° 337° (NNW) 3,138 5.4 -21.1°
Maximum altitude 23:47:41 35° 41° (NE) 1,742 3.5 -22.4°
Enters shadow 23:48:39 34° 57° (ENE) 1,767 3.4 -22.5°
